User: anonymous   Login
Location: Unspecified
(0.0000°N, 0.0000°E)
Time: 10:43:58
(UTC+02:00)
Language:

Meteor 2-8 Rocket - Orbit

View from above orbital plane
View from above orbital plane
View from above satellite
View from above satellite

Ground track
Ground track

The orbit data is extracted from the following two-line orbital elements,

1 13114U 82025B   18116.97217821 +.00000037 +00000-0 +20053-4 0  9995
2 13114 082.5373 313.0806 0014354 354.2387 112.3662 13.84665883823556
Epoch (UTC): 26 April 2018 23:19:56
Eccentricity: 0.0014354
inclination: 82.5373°
perigee height: 937 km
apogee height: 958 km
right ascension of ascending node: 313.0806°
argument of perigee: 354.2387°
revolutions per day: 13.84665883
mean anomaly at epoch: 112.3662°
orbit number at epoch: 82355

The dashed part of the orbit path shows where the satellite is in the earth's shadow,  

DLR